Date String (YYYY-MM-DD hh:mm:ss) UTC,Instrument flags,Ambient pressure (hPa),Sample flow (lpm),Bypass flow (lpm),Sample temperature (°C),Ambient temperature (°C),ASC tube jacket temperature (°C),LED temperature (°C),Box temperature (°C),Sample RH (%),Span deviation,Mass concentration (μg/m³),Mass concentration (μg/m³),Mass concentration (μg/m³)
DateTimeUTC,F1_M11,P_M11,Q1_M11,Q2_M11,T1_M11,T2_M11,T3_M11,T4_M11,T5_M11,U1_M11,ZSPAN_M11,X0_M11,X2_M11,X1_M11
2022-05-06 13:00:00,,0820.9,5.01,0.00,28.6,27.8,00.0,37.5,30.4,14.3,0000.0,0014.44,0004.56,0003.20
2022-05-06 13:01:00,,0820.8,5.00,0.00,28.6,27.8,00.0,37.5,30.4,12.5,0000.0,0014.18,0004.55,0003.19
2022-05-06 13:02:00,,0820.8,5.00,0.00,28.6,27.8,00.0,37.5,30.4,11.9,0000.0,0013.93,0004.44,0003.16
2022-05-06 13:03:00,,0820.8,5.00,0.00,28.6,27.8,00.0,37.5,30.4,14.6,0000.0,0013.26,0004.33,0003.10
2022-05-06 13:04:00,,0820.9,4.99,0.00,28.6,27.8,00.0,37.5,30.4,14.0,0000.0,0011.45,0004.20,0003.00
2022-05-06 13:05:00,,0820.9,5.01,0.00,28.6,27.8,00.0,37.5,30.4,14.0,0000.0,0010.71,0004.08,0002.92
2022-05-06 13:06:00,,0820.9,5.01,0.00,28.6,27.8,00.0,37.5,30.4,13.8,0000.0,0010.38,0003.99,0002.84
2022-05-06 13:07:00,,0821.0,4.99,0.00,28.6,27.8,00.0,37.5,30.4,13.4,0000.0,0010.56,0003.94,0002.81
2022-05-06 13:08:00,,0821.0,5.01,0.00,28.6,27.8,00.0,37.5,30.4,14.2,0000.0,0010.61,0003.92,0002.78
2022-05-06 13:09:00,,0821.0,5.00,0.00,28.6,27.8,00.0,37.5,30.4,13.9,0000.0,0011.24,0003.94,0002.78
2022-05-06 13:10:00,,0821.0,4.98,0.00,28.6,27.7,00.0,37.5,30.3,13.7,0000.0,0011.23,0003.89,0002.72
2022-05-06 13:11:00,,0821.0,5.01,0.00,28.6,27.7,00.0,37.5,30.3,13.8,0000.0,0010.95,0003.85,0002.67
2022-05-06 13:12:00,,0821.0,4.99,0.00,28.6,27.8,00.0,37.5,30.3,14.2,0000.0,0010.71,0003.80,0002.68
2022-05-06 13:13:00,,0821.0,5.01,0.00,28.6,27.8,00.0,37.5,30.4,14.2,0000.0,0010.56,0003.80,0002.70
2022-05-06 13:14:00,,0820.9,5.00,0.00,28.6,27.8,00.0,37.5,30.4,13.7,0000.0,0010.07,0003.77,0002.68
2022-05-06 13:15:00,,0820.9,5.00,0.00,28.6,27.8,00.0,37.5,30.4,13.5,0000.0,0009.68,0003.73,0002.64
2022-05-06 13:16:00,,0820.8,5.01,0.00,28.6,27.8,00.0,37.5,30.4,12.9,0000.0,0009.58,0003.70,0002.60
2022-05-06 13:17:00,,0820.8,4.98,0.00,28.6,27.8,00.0,37.5,30.4,13.7,0000.0,0009.72,0003.69,0002.57
2022-05-06 13:18:00,,0820.9,5.01,0.00,28.6,27.8,00.0,37.5,30.4,15.2,0000.0,0009.40,0003.67,0002.58
2022-05-06 13:19:00,,0821.0,5.01,0.00,28.6,27.8,00.0,37.5,30.4,15.6,0000.0,0009.11,0003.64,0002.61
2022-05-06 13:20:00,,0821.0,4.99,0.00,28.6,27.8,00.0,37.5,30.4,15.9,0000.0,0008.63,0003.69,0002.65
2022-05-06 13:21:00,,0821.0,5.01,0.00,28.6,27.8,00.0,37.5,30.4,15.4,0000.0,0008.62,0003.71,0002.67
2022-05-06 13:22:00,,0821.1,4.99,0.00,28.6,27.8,00.0,37.5,30.4,14.8,0000.0,0008.95,0003.73,0002.68
2022-05-06 13:23:00,,0821.1,5.01,0.00,28.6,27.8,00.0,37.5,30.4,14.8,0000.0,0009.01,0003.77,0002.69
2022-05-06 13:24:00,,0821.0,4.99,0.00,28.6,27.9,00.0,37.5,30.4,14.4,0000.0,0009.71,0003.79,0002.67
2022-05-06 13:25:00,,0821.0,5.01,0.00,28.6,27.9,00.0,37.5,30.4,13.0,0000.0,0009.91,0003.78,0002.63
2022-05-06 13:26:00,,0820.9,4.99,0.00,28.6,27.9,00.0,37.5,30.4,13.1,0000.0,0009.93,0003.78,0002.61
2022-05-06 13:27:00,,0820.8,5.01,0.00,28.6,27.9,00.0,37.6,30.5,11.6,0000.0,0009.89,0003.77,0002.61
2022-05-06 13:28:00,,0820.8,4.99,0.00,28.7,27.9,00.0,37.6,30.5,11.3,0000.0,0009.65,0003.72,0002.57
2022-05-06 13:29:00,,0820.9,5.01,0.00,28.7,27.9,00.0,37.6,30.5,10.3,0000.0,0010.31,0003.68,0002.51
2022-05-06 13:30:00,,0821.0,4.99,0.00,28.7,28.0,00.0,37.6,30.5,11.8,0000.0,0010.68,0003.66,0002.41
2022-05-06 13:31:00,,0820.9,5.02,0.00,28.7,28.0,00.0,37.6,30.5,17.9,0000.0,0011.20,0003.65,0002.40
2022-05-06 13:32:00,,0820.9,4.99,0.00,28.7,28.0,00.0,37.6,30.6,16.1,0000.0,0011.46,0003.68,0002.41
2022-05-06 13:33:00,,0821.0,5.00,0.00,28.7,28.0,00.0,37.6,30.5,19.3,0000.0,0011.25,0003.81,0002.48
2022-05-06 13:34:00,,0821.0,5.01,0.00,28.7,28.0,00.0,37.6,30.5,18.6,0000.0,0011.25,0003.96,0002.59
2022-05-06 13:35:00,,0821.0,4.98,0.00,28.7,27.9,00.0,37.6,30.4,18.8,0000.0,0011.00,0004.07,0002.71
2022-05-06 13:36:00,,0820.9,5.01,0.00,28.7,27.9,00.0,37.6,30.4,17.1,0000.0,0011.29,0004.14,0002.83
2022-05-06 13:37:00,,0820.9,4.99,0.00,28.6,27.9,00.0,37.6,30.4,13.0,0000.0,0011.40,0004.21,0002.87
2022-05-06 13:38:00,,0820.9,5.01,0.00,28.6,27.9,00.0,37.6,30.4,17.4,0000.0,0011.54,0004.28,0002.92
2022-05-06 13:39:00,,0821.0,4.99,0.00,28.6,27.9,00.0,37.6,30.3,18.0,0000.0,0012.03,0004.42,0003.05
2022-05-06 13:40:00,,0820.9,5.01,0.00,28.6,27.9,00.0,37.6,30.3,18.2,0000.0,0011.68,0004.57,0003.15
2022-05-06 13:41:00,,0820.8,4.99,0.00,28.6,27.9,00.0,37.6,30.4,18.3,0000.0,0011.39,0004.63,0003.21
2022-05-06 13:42:00,,0820.9,5.00,0.00,28.6,27.9,00.0,37.6,30.4,18.1,0000.0,0010.87,0004.63,0003.22
2022-05-06 13:43:00,,0821.0,5.00,0.00,28.6,27.8,00.0,37.6,30.4,18.2,0000.0,0010.51,0004.62,0003.22
2022-05-06 13:44:00,,0820.9,5.01,0.00,28.6,27.8,00.0,37.6,30.4,17.9,0000.0,0010.45,0004.51,0003.19
2022-05-06 13:45:00,,0820.8,5.01,0.00,28.6,27.8,00.0,37.6,30.3,18.3,0000.0,0010.45,0004.40,0003.15
2022-05-06 13:46:00,,0820.8,4.99,0.00,28.6,27.8,00.0,37.6,30.3,18.0,0000.0,0010.44,0004.35,0003.12
2022-05-06 13:47:00,,0820.9,5.00,0.00,28.6,27.8,00.0,37.6,30.3,17.9,0000.0,0010.05,0004.35,0003.08
2022-05-06 13:48:00,,0820.9,5.01,0.00,28.6,27.8,00.0,37.6,30.3,19.3,0000.0,0009.97,0004.31,0003.11
2022-05-06 13:49:00,,0820.8,4.99,0.00,28.6,27.8,00.0,37.5,30.3,18.6,0000.0,0010.33,0004.32,0003.13
2022-05-06 13:50:00,,0820.9,5.01,0.00,28.5,27.8,00.0,37.5,30.3,18.2,0000.0,0010.19,0004.31,0003.11
2022-05-06 13:51:00,,0821.0,4.99,0.00,28.5,27.8,00.0,37.5,30.3,14.3,0000.0,0010.28,0004.29,0003.05
2022-05-06 13:52:00,,0821.0,5.00,0.00,28.6,27.8,00.0,37.5,30.4,16.1,0000.0,0010.19,0004.24,0002.99
2022-05-06 13:53:00,,0820.9,4.99,0.00,28.6,27.8,00.0,37.5,30.4,14.7,0000.0,0010.12,0004.19,0002.96
2022-05-06 13:54:00,,0820.8,5.01,0.00,28.6,27.8,00.0,37.5,30.4,17.1,0000.0,0011.03,0004.17,0002.91
2022-05-06 13:55:00,,0820.9,5.00,0.00,28.6,27.9,00.0,37.5,30.4,16.1,0000.0,0010.89,0004.13,0002.88
2022-05-06 13:56:00,,0820.9,5.00,0.00,28.6,27.9,00.0,37.5,30.4,14.8,0000.0,0010.59,0004.08,0002.82
2022-05-06 13:57:00,,0820.9,5.01,0.00,28.6,27.9,00.0,37.5,30.4,14.1,0000.0,0010.85,0004.04,0002.74
2022-05-06 13:58:00,,0820.8,5.00,0.00,28.6,27.9,00.0,37.5,30.4,13.7,0000.0,0011.32,0003.97,0002.70
2022-05-06 13:59:00,,0820.8,4.99,0.00,28.6,27.9,00.0,37.5,30.4,12.8,0000.0,0011.76,0003.94,0002.64
